Regional Weather Roundup
Issued by NWS

Home | Current Version | Previous Version | Graphics & Text | Print | Product List | Glossary On
Versions: 1 2 3 4 5 6 7 8 9 10 11 12 13 14 15 16 17 18 19 20 21 22 23 24 25 26 27 28 29 30 31 32 33 34 35 36 37 38 39 40 41 42 43 44 45 46 47 48 49 50
000
ASUS45 KABQ 222301
RWRNM
NEW MEXICO REGIONAL WEATHER ROUNDUP
NATIONAL WEATHER SERVICE ALBUQUERQUE NM
400 PM MST MON JAN 22 2018

NOTE: "FAIR" MEANS FEW OR NO CLOUDS BELOW 12,000 FEET AGL WITH NO
       SIGNIFICANT WEATHER OR OBSTRUCTIONS TO VISION.

      THIS PRODUCT IS RELEASED AS TWO VERSIONS.  ONE VERSION NEAR
      THE TOP OF THE HOUR CONTAINING PRELIMINARY DATA FROM ALBUQUERQUE
      AND OTHER STATIONS.  A FINAL VERSION WITH ADDITIONAL DATA IS
      ISSUED ABOUT 10 MINUTES AFTER THE HOUR.

NMZ501-503-504-510>518-230000-
NORTHWEST PLATEAU/NORTHCENTRAL MOUNTAINS

CITY           SKY/WX    TMP DP  RH WIND       PRES   REMARKS
FARMINGTON     FAIR      36  11  35 SW5       30.20S WCI  32
LOS ALAMOS     FAIR      33   4  29 E3        30.17R
SANTA FE       FAIR      38  12  34 N7        30.16R WCI  33
TAOS           FAIR      31   8  38 CALM      30.19S
ANGEL FIRE     FAIR      24  10  55 W14       30.14R WCI  12

$$
NMZ402-403-502-505>509-230000-
WESTCENTRAL MOUNTAINS/SOUTHWEST MOUNTAINS

CITY           SKY/WX    TMP DP  RH WIND       PRES   REMARKS
GALLUP         FAIR      37   8  30 CALM      30.20S
GRANTS         FAIR      39  -3  17 N13       30.20S WCI  32
SILVER CITY    FAIR      47  -2  13 SE7       30.17R

$$
NMZ407-409-411-412-230000-
SOUTHERN DESERTS

CITY           SKY/WX    TMP DP  RH WIND       PRES   REMARKS
DEMING         FAIR      51   2  13 E5        30.17S
LAS CRUCES     FAIR      49   0  13 N6        30.18S
HOLLOMAN AFB   FAIR      48   5  17 N8        30.19S
ALAMOGORDO     FAIR      48   5  17 NW12      30.18R
T OR C         FAIR      47   4  17 E6        30.17S

$$
NMZ519>523-230000-
CENTRAL VALLEYS/CENTRAL HIGHLANDS

CITY           SKY/WX    TMP DP  RH WIND       PRES   REMARKS
ALBUQUERQUE    FAIR      43   9  24 N7        30.19R
DOUBLE EAGLE   MOSUNNY   41   7  24 NW5       30.19R
MORIARTY ARPT  FAIR      41   9  26 NW15      30.16S
CLINES CORNERS FAIR      35   1  23 NW18G28   30.13R WCI  24
BELEN          FAIR      43   3  19 N5        30.19S
SOCORRO        FAIR      44   6  21 N12G18    30.18S

$$
NMZ524>526-539-540-230000-
SOUTHCENTRAL MOUNTAINS

CITY           SKY/WX    TMP DP  RH WIND       PRES   REMARKS
RUIDOSO        NOT AVBL

$$
NMZ527>531-230000-
NORTHEAST HIGHLANDS/NORTHEAST PLAINS

CITY           SKY/WX    TMP DP  RH WIND       PRES   REMARKS
LAS VEGAS      FAIR      41 -11  10 N20       30.09R
RATON          FAIR      46 -10   9 NW9       30.04R
CLAYTON        FAIR      45  -4  13 NW14      30.06R

$$
NMZ532>537-230000-
EASTCENTRAL PLAINS

CITY           SKY/WX    TMP DP  RH WIND       PRES   REMARKS
TUCUMCARI      FAIR      52  -6   9 SW3       30.07R
CANNON AFB     FAIR      50  -9   8 N12       30.11R
CLOVIS AIRPORT FAIR      49  -7   9 NW15      30.11R

$$
NMZ028-029-538-230000-
SOUTHEAST PLAINS

CITY           SKY/WX    TMP DP  RH WIND       PRES   REMARKS
ROSWELL        FAIR      55   4  12 E7        30.11R
ARTESIA        FAIR      54   5  14 VRB7      30.14R
CARLSBAD       FAIR      54   4  13 CALM      30.13R
HOBBS          SUNNY     52   0  11 N7        30.13R


$$




USA.gov is the U.S. government's official web portal to all federal, state and local government web resources and services.